P/2005 U1 ( Read )

Japanese version
Home page
Total 6,336 html files since Dec. 4, 1995
Updated on April 23, 2006

---------------------------------------------------------------------

* Profile

Discovery Date October 24, 2005
Magnitude 20.2 mag
Discoverer Michael T. Read (Spacewatch)

* Orbital Elements

Epoch 2005 July 9.0 TT = JDT 2453560.5
T 2005 July 27.92466 TT                                 MPC
q   2.3648739            (2000.0)            P               Q
n   0.17505822     Peri.  325.79300     +0.95392822     -0.29953418
a   3.1648105      Node    51.64614     +0.27998167     +0.86792723
e   0.2527597      Incl.    1.26607     +0.10784810     +0.39620902
P   5.63

* Magnitudes Graph

        m1 = 14.5 + 5 log d + 10.0 log r

---------------------------------------------------------------------

The orbital elements are published on M.P.E.C. 2006-C65.
The magnitudes graphs are made with Comet for Windows.

---------------------------------------------------------------------

Copyright(C) 1995-2008 Seiichi Yoshida (comet@aerith.net). All rights reserved.